[[{"header":{"parameterUnit":"m.s-1","parameterCategory":1,"la1":30.2991,"la2":30.254,"lo1":-89.0895,"lo2":-89.0444,"dy":0.0017,"dx":0.0017,"nx":28,"ny":28,"refTime":"2025-04-22T09:00:00:Z","depth":0,"parameterNumber":2,"parameterNumberName":"U-component_of_WINDS"},"data":[0,0,0,0,0,0,0,0,0,0,0,0,0,0,0,0,0,0,0,0,0,0,0,0,0,0,0,0,0,0,0,0,0,0,0,0,0,0,0,0,0,0,0,0,0,0,0,0,0,0,0,0,0,0,0,0,0,0,-0.8362,-0.8361,0,-0.8279,-0.8278,-0.8277,-0.8235,-0.8235,-0.8235,-0.8235,-0.8149,-0.8147,-0.8145,0,0,0,0,0,0,0,0,0,0,0,0,0,-0.8485,-0.8483,-0.8362,-0.8361,-0.836,-0.8279,-0.8278,-0.8276,-0.8235,-0.8235,-0.8235,-0.8235,-0.815,-0.8147,-0.8144,0,0,0,0,0,0,0,0,0,0,0,0,0,-0.8419,-0.8482,-0.8363,-0.833,-0.8326,-0.8279,-0.8278,-0.8276,-0.8235,-0.8235,-0.8235,-0.8235,-0.8151,-0.8147,-0.8144,-0.8123,0,0,-0.8134,-0.8132,0,0,0,0,0,0,0,0,-0.8423,-0.8415,-0.8336,-0.8332,-0.8328,-0.8267,-0.8289,-0.8225,-0.8235,-0.8269,-0.8235,-0.8235,-0.8188,-0.8182,-0.8166,-0.8119,-0.8116,-0.8133,-0.8131,-0.813,-0.8129,0,0,0,0,0,0,0,-0.8428,-0.8418,-0.8329,-0.8334,-0.833,-0.8319,-0.8309,-0.8277,-0.823,-0.8266,-0.8263,-0.8254,-0.8186,-0.817,-0.8164,-0.8114,-0.8133,-0.813,-0.8128,-0.8127,-0.8044,-0.8044,0,0,0,0,0,0,-0.8438,-0.8422,-0.8332,-0.8327,-0.8376,-0.8316,-0.8306,-0.8287,-0.823,-0.8222,-0.8254,-0.8252,-0.8175,-0.8168,-0.8161,-0.8131,-0.813,-0.8127,-0.8125,-0.8044,-0.8044,-0.8044,0,0,0,0,0,0,-0.844,-0.843,-0.8335,-0.8374,-0.8361,-0.8314,-0.8293,-0.8285,-0.8268,-0.8221,-0.8212,-0.8246,-0.8175,-0.8166,-0.8132,-0.8128,-0.8125,-0.8122,-0.8044,-0.8044,-0.8044,-0.8073,0,0,0,0,0,0,-0.8444,-0.8431,-0.8423,-0.8374,-0.8359,-0.8309,-0.8293,-0.8283,-0.8263,-0.8259,-0.8211,-0.8203,-0.8174,-0.8138,-0.8129,-0.8123,-0.8119,-0.8045,-0.8044,-0.8044,-0.8073,-0.8074,-0.8075,0,0,0,0,0,-0.8449,-0.8436,-0.8423,-0.8413,-0.8348,-0.8309,-0.83,-0.8268,-0.8262,-0.8254,-0.8223,-0.8204,-0.813,-0.8135,-0.8125,-0.8117,-0.8045,-0.8044,-0.8044,-0.8072,-0.8074,-0.8075,0,0,0,0,0,0,-0.8487,-0.8429,-0.8414,-0.8385,-0.8352,-0.8302,-0.829,-0.8271,-0.8239,-0.8238,-0.8199,-0.8188,-0.8158,-0.8135,-0.8141,-0.8093,-0.8085,-0.8083,-0.811,-0.8111,-0.8113,-0.8119,-0.8117,0,0,0,0,0,-0.8491,-0.8465,-0.8415,-0.8394,-0.8378,-0.8337,-0.8319,-0.8296,-0.8261,-0.8247,-0.8214,-0.818,-0.8148,-0.8129,-0.8097,-0.8069,-0.8057,-0.8059,-0.806,-0.8062,-0.806,-0.8041,-0.8041,-0.8043,-0.8043,-0.8043,0,0,-0.8501,-0.8466,-0.8452,-0.8401,-0.8373,-0.8345,-0.8326,-0.8298,-0.8277,-0.8243,-0.8209,-0.8183,-0.8143,-0.8111,-0.8096,-0.8091,-0.8057,-0.8061,-0.8063,-0.806,-0.8041,-0.8041,-0.8041,-0.8042,-0.8042,-0.8042,0,0,-0.8505,-0.8477,-0.8455,-0.8426,-0.8384,-0.8356,-0.8351,-0.8303,-0.8285,-0.825,-0.8223,-0.8198,-0.8145,-0.8116,-0.8095,-0.8086,-0.8067,-0.8077,-0.8084,-0.8067,-0.8067,-0.8066,-0.8062,-0.8061,-0.8075,-0.8075,-0.8075,0,-0.8523,-0.848,-0.8446,-0.8419,-0.8396,-0.8363,-0.834,-0.8315,-0.8264,-0.8249,-0.8244,-0.8176,-0.8146,-0.8107,-0.8105,-0.8089,-0.8081,-0.8082,-0.8069,-0.8069,-0.8068,-0.8063,-0.8062,-0.8077,-0.8077,-0.8076,-0.8076,0,-0.8503,-0.8474,-0.8462,-0.8413,-0.8389,-0.8364,-0.8325,-0.8305,-0.8284,-0.8257,-0.8221,-0.8185,-0.8144,-0.8133,-0.8114,-0.8091,-0.8089,-0.8077,-0.8068,-0.807,-0.8065,-0.8063,-0.8079,-0.8078,-0.8078,-0.8078,0,0,-0.853,-0.8461,-0.8457,-0.8433,-0.8383,-0.8359,-0.8332,-0.8293,-0.8276,-0.8241,-0.8217,-0.8172,-0.8161,-0.8136,-0.8113,-0.8097,-0.8091,-0.8087,-0.8086,-0.8088,-0.8062,-0.807,-0.8069,-0.8078,-0.8077,-0.8077,-0.8065,0,-0.8526,-0.8476,-0.8443,-0.8406,-0.8377,-0.8345,-0.8321,-0.8287,-0.826,-0.8232,-0.8203,-0.8171,-0.8159,-0.8143,-0.8127,-0.8095,-0.8085,-0.8095,-0.8054,-0.8053,-0.8065,-0.8066,-0.8076,-0.8066,-0.8063,-0.8062,-0.8062,0,-0.8515,-0.848,-0.844,-0.8391,-0.8378,-0.8357,-0.8317,-0.8291,-0.8251,-0.8233,-0.8205,-0.818,-0.8149,-0.8143,-0.8099,-0.8107,-0.8088,-0.807,-0.8069,-0.8063,-0.8057,-0.806,-0.8062,-0.8061,-0.8059,-0.8059,-0.8059,0,-0.8536,-0.848,-0.8448,-0.8429,-0.8372,-0.8358,-0.8333,-0.8293,-0.8271,-0.8236,-0.822,-0.8183,-0.8162,-0.8132,-0.8098,-0.8097,-0.8057,-0.8048,-0.804,-0.8041,-0.8033,-0.8034,-0.8032,-0.8022,-0.8022,-0.8022,-0.8022,0,-0.8535,-0.8511,-0.8457,-0.8437,-0.8409,-0.8371,-0.8344,-0.8317,-0.8282,-0.8256,-0.8225,-0.8202,-0.8158,-0.8128,-0.8101,-0.8068,-0.8059,-0.8043,-0.8036,-0.8045,-0.8047,-0.8032,-0.8032,-0.8022,-0.8022,-0.8022,-0.8022,0,-0.8554,-0.8517,-0.848,-0.8428,-0.8414,-0.8396,-0.8351,-0.833,-0.8301,-0.8268,-0.8259,-0.8213,-0.8177,-0.8139,-0.8091,-0.8072,-0.804,-0.8031,-0.8053,-0.8049,-0.8043,-0.8044,-0.803,-0.8026,-0.802,-0.802,-0.802,0,-0.8556,-0.8536,-0.8482,-0.8462,-0.8437,-0.8406,-0.8383,-0.8344,-0.8321,-0.8273,-0.8258,-0.8219,-0.8186,-0.8129,-0.8091,-0.8053,-0.8042,-0.804,-0.8037,-0.8046,-0.8041,-0.8043,-0.804,-0.8042,-0.8042,-0.8042,-0.8042,0,-0.8561,-0.8543,-0.8511,-0.8471,-0.8443,-0.8411,-0.8376,-0.8362,-0.8316,-0.8292,-0.8254,-0.8228,-0.8177,-0.8138,-0.8095,-0.8069,-0.8048,-0.8044,-0.8039,-0.8049,-0.8062,-0.8054,-0.8056,-0.8044,-0.8044,-0.8044,-0.8044,-0.8044,-0.8571,-0.8552,-0.851,-0.8474,-0.8444,-0.8412,-0.8389,-0.8357,-0.8325,-0.828,-0.8259,-0.8221,-0.818,-0.812,-0.8094,-0.8063,-0.8057,-0.8052,-0.805,-0.8049,-0.8051,-0.8067,-0.8055,-0.8055,-0.8055,-0.8055,-0.8055,0,-0.8574,-0.8545,-0.8512,-0.8465,-0.8436,-0.8418,-0.8379,-0.8356,-0.8322,-0.8286,-0.8254,-0.8209,-0.8171,-0.813,-0.809,-0.8073,-0.8062,-0.8063,-0.8064,-0.8058,-0.8059,-0.8066,-0.8073,-0.8073,-0.8073,-0.8073,-0.8073,-0.8073,-0.8572,-0.8538,-0.8515,-0.8465,-0.8436,-0.8398,-0.8377,-0.8347,-0.8318,-0.8269,-0.8237,-0.8211,-0.8172,-0.8128,-0.8092,-0.8081,-0.8067,-0.8071,-0.8058,-0.8059,-0.8058,-0.8057,-0.8063,-0.8069,-0.8069,-0.8059,-0.8059,-0.8059]},{"header":{"parameterUnit":"m.s-1","parameterCategory":1,"la1":30.2991,"la2":30.254,"lo1":-89.0895,"lo2":-89.0444,"dy":0.0017,"dx":0.0017,"nx":28,"ny":28,"refTime":"2025-04-22T09:00:00:Z","depth":0,"parameterNumber":3,"parameterNumberName":"V-component_of_WINDS"},"data":[0,0,0,0,0,0,0,0,0,0,0,0,0,0,0,0,0,0,0,0,0,0,0,0,0,0,0,0,0,0,0,0,0,0,0,0,0,0,0,0,0,0,0,0,0,0,0,0,0,0,0,0,0,0,0,0,0,0,4.9642,4.9644,0,4.9843,4.9845,4.9848,4.9913,4.9912,4.9911,4.991,5.0114,5.012,5.0126,0,0,0,0,0,0,0,0,0,0,0,0,0,4.9316,4.9322,4.9642,4.9644,4.9647,4.9843,4.9846,4.9848,4.9913,4.9912,4.9911,4.991,5.0112,5.0119,5.0127,0,0,0,0,0,0,0,0,0,0,0,0,0,4.9481,4.9323,4.9641,4.9703,4.9711,4.9842,4.9846,4.9849,4.9913,4.9912,4.9911,4.991,5.0109,5.0118,5.0128,5.0212,0,0,5.0156,5.016,0,0,0,0,0,0,0,0,4.9472,4.9493,4.9691,4.9699,4.9708,4.9852,4.9805,4.997,4.9914,4.9836,4.991,4.9909,5.0027,5.0043,5.0084,5.0221,5.023,5.0157,5.0163,5.0167,5.0169,0,0,0,0,0,0,0,4.946,4.9485,4.9721,4.9694,4.9704,4.9721,4.9743,4.9837,4.9937,4.9843,4.9848,4.9871,5.0032,5.0075,5.0089,5.0233,5.0157,5.0165,5.0171,5.0174,5.0455,5.0457,0,0,0,0,0,0,4.9438,4.9475,4.9715,4.9727,4.9584,4.9728,4.9753,4.9807,4.9936,4.9954,4.9872,4.9874,5.0059,5.0078,5.0097,5.0207,5.0167,5.0175,5.0181,5.0453,5.0456,5.0458,0,0,0,0,0,0,4.9431,4.9459,4.9707,4.9603,4.9636,4.9735,4.9795,4.9811,4.9855,4.9958,4.9976,4.9898,5.0059,5.0083,5.0184,5.0215,5.018,5.0188,5.0451,5.0454,5.0457,5.0426,0,0,0,0,0,0,4.9421,4.9456,4.9488,4.9603,4.9641,4.979,4.9797,4.9816,4.9871,4.9875,4.9987,5.0004,5.006,5.017,5.0193,5.0227,5.0195,5.0449,5.0452,5.0456,5.0425,5.0427,5.043,0,0,0,0,0,4.941,4.947,4.9489,4.9518,4.9683,4.9792,4.9813,4.9877,4.9873,4.9907,4.9975,5.0001,5.0208,5.0179,5.0207,5.0243,5.0447,5.0451,5.0455,5.0424,5.0427,5.043,0,0,0,0,0,0,4.9353,4.9486,4.9509,4.9608,4.9689,4.9803,4.9847,4.9878,4.996,4.996,5.0035,5.006,5.0156,5.021,5.0176,5.0335,5.0329,5.0339,5.0295,5.0299,5.0302,5.0287,5.0203,0,0,0,0,0,4.9353,4.943,4.9542,4.9618,4.9658,4.9746,4.9795,4.9838,4.9924,4.9958,5.0032,5.0114,5.0199,5.0252,5.0335,5.0434,5.0461,5.0473,5.0475,5.0477,5.0484,5.0545,5.0552,5.0471,5.0471,5.0471,0,0,4.9351,4.9434,4.9477,4.9609,4.9677,4.9756,4.9773,4.9855,4.9916,4.997,5.007,5.0129,5.0225,5.0327,5.0375,5.0375,5.0513,5.0482,5.0483,5.0489,5.055,5.0557,5.0564,5.0474,5.0474,5.0473,0,0,4.9391,4.9459,4.9533,4.9602,4.9705,4.9764,4.9782,4.9893,4.9934,5.0037,5.0081,5.0154,5.0296,5.0365,5.0418,5.049,5.0519,5.0515,5.0528,5.0586,5.0592,5.0598,5.0626,5.0635,5.0523,5.0522,5.0522,0,4.9376,4.9497,4.9567,4.9649,4.9707,4.9763,4.984,4.9902,5.0026,5.0066,5.0064,5.0248,5.0317,5.0437,5.0455,5.0496,5.052,5.0502,5.0586,5.0593,5.0599,5.0627,5.0637,5.0521,5.0522,5.0522,5.0522,0,4.9476,4.956,4.9607,4.9729,4.9793,4.9871,4.9954,5.001,5.0049,5.0108,5.0215,5.03,5.0404,5.0435,5.0472,5.0562,5.056,5.0571,5.0567,5.0605,5.0632,5.0643,5.052,5.052,5.0521,5.0521,0,0,4.948,4.9644,4.966,4.9719,4.9839,4.9906,4.9989,5.0092,5.014,5.0225,5.0298,5.042,5.0434,5.0494,5.054,5.0591,5.0647,5.0598,5.0601,5.0605,5.0755,5.0745,5.0756,5.0667,5.0669,5.0671,5.0747,0,4.9536,4.9687,4.9755,4.9875,4.9956,5.0013,5.0086,5.0169,5.0228,5.0306,5.0371,5.0458,5.0467,5.0505,5.0558,5.0628,5.0678,5.0624,5.0736,5.0739,5.071,5.077,5.076,5.0827,5.0758,5.076,5.0761,0,4.9619,4.9709,4.9838,4.9954,4.9991,5.0054,5.0157,5.023,5.0327,5.0367,5.0438,5.0483,5.0574,5.0565,5.0693,5.0655,5.0706,5.0748,5.0752,5.0765,5.0752,5.0785,5.0849,5.086,5.0778,5.0777,5.0775,0,4.9613,4.9765,4.9863,4.9911,5.0048,5.0093,5.0152,5.0247,5.0307,5.0397,5.0437,5.0535,5.0589,5.0665,5.0737,5.0723,5.0859,5.0855,5.0896,5.0894,5.0921,5.0918,5.0995,5.0952,5.0952,5.0952,5.0952,0,4.9668,4.9745,4.9863,4.9923,5.0013,5.0092,5.0178,5.0242,5.0327,5.0402,5.0458,5.0526,5.0617,5.0698,5.0755,5.0854,5.0877,5.0913,5.0927,5.0908,5.0904,5.0942,5.0939,5.0955,5.0954,5.0954,5.0953,0,4.9674,4.9756,4.9867,4.9991,5.0024,5.0084,5.019,5.0252,5.0316,5.041,5.0437,5.0537,5.0636,5.0716,5.0844,5.0883,5.0987,5.1003,5.0955,5.0962,5.0999,5.0995,5.1103,5.1122,5.1066,5.1066,5.1067,0,4.9704,4.9765,4.9897,4.9952,5.0011,5.0099,5.0161,5.0243,5.0305,5.0423,5.0472,5.0575,5.0662,5.0818,5.0902,5.1002,5.1021,5.1052,5.1036,5.1016,5.1023,5.1019,5.1027,5.1053,5.1053,5.1053,5.1054,0,4.9749,4.9788,4.9876,4.998,5.0054,5.0139,5.0225,5.0267,5.0365,5.0433,5.0537,5.0604,5.0738,5.0841,5.0951,5.1012,5.105,5.1059,5.1074,5.1055,5.1025,5.1044,5.096,5.1055,5.1055,5.1055,5.1055,5.1055,4.9769,4.9828,4.9931,5.0029,5.0104,5.0185,5.0251,5.0325,5.0413,5.0529,5.0573,5.0679,5.0779,5.0931,5.0994,5.1079,5.1082,5.1103,5.1109,5.1113,5.1111,5.1012,5.1099,5.1099,5.1099,5.1099,5.1099,0,4.9818,4.9889,4.9978,5.01,5.0178,5.021,5.0308,5.0371,5.0465,5.0556,5.0642,5.0763,5.0864,5.0958,5.1065,5.1115,5.1135,5.114,5.1137,5.1152,5.1101,5.1079,5.1123,5.1123,5.1123,5.1123,5.1123,5.1123,4.9853,4.9956,5.0008,5.015,5.0221,5.0327,5.0381,5.0458,5.0531,5.0664,5.0749,5.0811,5.0905,5.1019,5.1114,5.114,5.1177,5.1178,5.1207,5.1158,5.1155,5.1151,5.1131,5.1185,5.1185,5.1251,5.1252,5.1252]}]]